CAPE
0 0 0 0 0 0 0 0 0 0 0 0 0 0 0 0 0 0 0 0 0 175 920 1253 1096 915 1008 817 822 581 390 362 315 276 188 129 72 25 27 13 4 2 0 3 0 0 0 0 0
0 0 0 0 0 0 0 0 0 0 0 0 0 0 0 0 0 0 0 0 18 136 1011 1314 1145 913 778 749 888 640 447 332 307 258 143 102 80 38 4 3 0 0 5 2 0 0 1 1 0
0 0 0 0 0 0 0 0 0 0 0 0 0 0 0 0 0 0 0 0 20 67 1186 1243 1211 1021 694 745 707 684 607 380 308 225 135 35 34 81 90 9 0 0 0 1 0 4 9 1 6
0 0 0 0 0 0 0 0 0 0 0 0 0 0 0 0 0 0 0 0 0 0 578 1183 1133 1088 810 669 662 603 581 409 302 240 153 51 55 99 59 11 86 51 0 0 4 43 7 0 12
0 0 0 0 0 0 0 0 0 0 0 0 0 0 0 0 0 0 0 0 0 0 0 481 798 937 861 752 662 569 573 475 346 261 163 93 85 44 36 12 36 81 0 0 40 68 16 34 14
0 0 0 0 0 0 0 0 0 0 0 0 0 0 0 0 0 0 0 0 0 0 0 0 9 207 611 813 748 434 538 437 422 302 184 117 92 84 93 49 51 31 33 25 77 44 8 15 7
0 0 0 0 0 0 0 0 0 0 0 0 0 0 0 0 0 0 0 0 0 0 0 0 0 0 14 276 586 513 410 386 422 407 293 152 74 21 47 0 1 12 22 35 46 36 13 0 0
0 0 0 0 0 0 0 0 0 0 0 0 0 0 0 0 0 0 0 0 0 0 0 0 0 0 0 0 158 425 354 279 324 482 362 192 66 0 0 0 0 10 13 25 24 22 19 3 0
0 0 0 0 0 0 0 0 0 0 0 0 0 0 0 0 0 0 0 0 0 0 0 0 0 0 0 0 1 15 295 179 301 329 207 183 100 0 0 0 0 0 1 11 8 14 12 11 0
0 0 0 0 0 0 0 0 0 0 0 0 0 0 0 0 0 0 0 0 0 0 0 0 0 0 0 0 0 0 86 163 233 214 175 224 133 4 1 0 0 0 0 5 10 7 11 15 0
0 0 0 0 0 0 0 0 0 0 0 0 0 0 0 0 0 0 0 0 0 0 0 0 0 0 0 0 0 0 0 93 180 173 156 166 27 0 0 0 0 1 8 11 11 11 4 7 2
0 0 0 0 0 0 0 0 0 0 0 0 0 0 0 0 0 0 0 0 0 0 0 0 0 0 0 0 0 0 0 0 157 116 156 57 2 0 0 0 0 1 7 8 14 7 0 9 0
0 0 0 0 0 0 0 0 0 0 0 0 0 0 0 0 0 0 0 0 0 0 0 0 0 0 0 0 0 0 0 0 18 162 124 91 4 0 0 0 0 3 4 5 10 9 2 0 0
0 0 0 0 0 0 0 0 0 0 0 0 0 0 0 0 0 0 0 0 0 0 0 0 0 0 0 0 0 0 0 0 2 24 155 99 4 0 0 0 0 0 7 5 15 8 2 0 0
0 0 0 0 0 0 0 0 0 0 0 0 0 0 0 0 0 0 0 0 0 0 0 0 0 0 0 0 0 0 0 0 0 4 38 33 1 0 0 0 0 0 0 4 15 11 19 10 10
0 0 0 0 0 0 0 0 0 0 0 0 0 0 0 0 0 0 0 0 0 0 0 0 0 0 0 0 0 0 0 0 0 1 14 99 2 0 0 0 0 0 0 1 11 8 11 26 23
0 0 0 0 0 0 0 0 0 0 0 0 0 0 0 0 0 0 0 0 0 0 0 0 0 0 0 0 0 0 0 0 0 21 54 38 13 2 4 0 0 0 0 0 7 19 24 30 16
0 0 0 2 0 0 0 0 0 0 0 0 0 0 0 0 0 0 0 0 0 0 0 0 0 0 0 0 0 0 0 3 12 57 206 17 16 11 2 0 0 0 0 0 12 34 29 28 34
7 0 0 0 0 0 0 0 0 0 0 0 0 0 0 0 0 0 0 0 0 0 0 0 0 0 0 0 0 0 0 10 58 131 239 75 8 2 2 5 1 0 0 15 35 39 28 28 18
0 0 0 0 0 0 0 0 0 0 0 0 0 0 0 0 0 0 0 0 0 0 0 0 0 0 0 0 0 0 9 39 83 104 46 55 23 2 6 1 14 0 12 36 32 50 32 28 13
0 0 0 0 0 0 0 0 0 0 0 0 0 0 0 0 0 0 0 0 0 0 0 0 0 0 0 0 0 5 30 14 102 95 40 39 4 1 2 14 25 11 6 13 37 39 28 44 19
0 0 0 0 0 0 0 0 0 0 0 0 0 0 0 0 0 2 1 0 0 0 0 0 0 0 0 0 0 0 0 18 48 39 55 35 11 3 4 14 2 12 4 6 33 33 65 34 45
0 0 0 0 0 0 0 0 0 0 0 0 0 0 0 0 1 1 2 2 0 0 0 0 0 0 0 0 37 25 0 8 80 42 0 1 1 1 1 0 5 13 7 0 0 0 0 1 0
0 0 0 0 0 0 0 0 0 0 0 0 0 0 0 0 1 2 2 2 2 1 0 0 0 0 0 0 0 2 17 0 0 0 1 4 8 9 7 4 1 1 5 6 4 7 7 9 5
0 0 0 0 0 0 0 0 0 0 0 0 0 0 0 0 1 2 3 4 4 4 4 3 4 3 5 6 3 4 4 7 7 9 11 9 11 14 11 8 13 14 9 9 9 8 7 8 7
0 0 0 0 0 0 0 0 0 1 0 0 0 0 0 1 0 1 2 2 3 4 3 4 5 6 5 6 7 8 6 8 9 9 11 12 13 6 4 6 7 5 6 7 5 5 7 4 5
0 0 0 0 0 0 0 0 0 0 0 0 0 0 0 0 0 1 1 1 2 3 3 4 3 4 4 2 4 7 3 5 7 4 4 5 3 2 5 5 5 5 5 5 4 4 4 0 4
0 0 0 0 0 0 0 0 0 0 0 0 0 0 0 0 1 0 0 1 1 2 2 1 2 3 1 1 3 4 3 2 3 3 4 3 3 3 3 6 4 3 3 3 4 4 1 0 0
0 0 0 0 0 0 0 0 0 0 0 0 0 1 0 0 0 0 1 1 0 0 0 0 0 0 0 0 1 2 3 2 1 3 2 2 1 0 1 1 1 0 0 0 0 0 0 0 0
0 0 0 0 0 0 0 0 0 0 0 0 0 1 0 0 0 1 1 0 0 0 0 0 0 0 0 0 0 0 0 0 0 0 0 0 0 0 0 0 0 0 0 0 0 0 0 0 0
CIN
0 0 0 0 0 0 0 0 0 0 0 0 0 0 0 0 0 0 0 0 0 -151 -66 -44 -60 -77 -59 -67 -52 -74 -82 -84 -62 -42 -57 -114 -140 -197 -134 -119 -45 -101 0 0 0 0 0 0 0
0 0 0 0 0 0 0 0 0 0 0 0 0 0 0 0 0 0 0 0 -171 -145 -30 -7 -16 -39 -59 -55 -30 -38 -52 -63 -53 -51 -46 -84 -107 -137 -125 -83 0 0 0 0 0 0 0 0 0
0 0 0 0 0 0 0 0 0 0 0 0 0 0 0 0 0 0 0 0 -173 -214 -29 -15 -7 -16 -47 -48 -32 -18 -7 -33 -44 -40 -48 -90 -94 -87 -57 -117 0 0 0 0 0 0 0 0 -11
0 0 0 0 0 0 0 0 0 0 0 0 0 0 0 0 0 0 0 0 -1 -3 -112 -16 -13 -12 -21 -45 -32 -16 -7 -6 -13 -34 -46 -68 -57 -48 -54 -120 -57 -47 0 0 0 -37 0 0 -6
0 0 0 0 0 0 0 0 0 0 0 0 0 0 0 0 0 0 0 0 0 0 0 -95 -19 -3 -5 -19 -31 -16 -3 -6 -4 -6 -25 -45 -31 -49 -50 -96 -68 -52 0 0 -5 -25 -12 0 -15
0 0 0 0 0 0 0 0 0 0 0 0 0 0 0 0 0 0 0 0 0 0 0 0 -23 -106 -11 -8 -15 -20 -7 -6 -6 -4 -20 -25 -28 -32 -11 -42 -33 -83 -60 -7 -12 0 0 0 -10
0 0 0 0 0 0 0 0 0 0 0 0 0 0 0 0 0 0 0 0 0 0 0 0 0 0 -19 -38 -11 -11 -11 -11 -6 -4 -2 -20 -40 -54 -37 0 -1 -4 -7 -6 -7 -4 -4 0 0
0 0 0 0 0 0 0 0 0 0 0 0 0 0 0 0 0 0 0 0 0 0 0 0 0 0 0 0 -59 -15 -26 -18 -8 -2 -2 -9 -40 0 0 0 0 -6 -5 -6 -8 -7 -7 -3 0
0 0 0 0 0 0 0 0 0 0 0 0 0 0 0 0 0 0 0 0 0 0 0 0 0 0 0 0 0 -49 -15 -32 -11 -11 -15 -7 -7 -1 0 0 0 0 -7 -5 -2 -5 -6 -3 0
0 0 0 0 0 0 0 0 0 0 0 0 0 0 0 0 0 0 0 0 0 0 0 0 0 0 0 0 0 0 -90 -12 -13 -15 -14 -7 -6 -16 -20 0 0 0 -1 -1 -4 -5 -7 -6 0
0 0 0 0 0 0 0 0 0 0 0 0 0 0 0 0 0 0 0 0 0 0 0 0 0 0 0 0 0 0 0 -22 -12 -16 -15 -10 -16 -4 0 0 0 -8 -14 -8 -5 -8 -15 -18 -18
0 0 0 0 0 0 0 0 0 0 0 0 0 0 0 0 0 0 0 0 0 0 0 0 0 0 0 0 0 0 0 0 -2 -18 -17 -19 -18 0 0 0 0 -12 -14 -13 -17 -20 0 -20 -8
0 0 0 0 0 0 0 0 0 0 0 0 0 0 0 0 0 0 0 0 0 0 0 0 0 0 0 0 0 0 0 0 -4 -9 -21 -15 -51 -6 0 0 -8 -11 -11 -15 -21 -23 -23 0 0
0 0 0 0 0 0 0 0 0 0 0 0 0 0 0 0 0 0 0 0 0 0 0 0 0 0 0 0 0 0 0 0 0 -19 -7 -11 -45 0 0 0 0 -9 -13 -12 -20 -23 -27 0 0
0 0 0 0 0 0 0 0 0 0 0 0 0 0 0 0 0 0 0 0 0 0 0 0 0 0 0 0 0 0 0 0 0 -84 -54 -58 -19 -5 0 0 0 0 -1 -13 -18 -18 -18 -18 -22
0 0 0 0 0 0 0 0 0 0 0 0 0 0 0 0 0 0 0 0 0 0 0 0 0 0 0 0 0 0 0 0 0 -11 -60 -1 -1 0 0 0 0 0 0 -5 -13 -18 -10 -10 -15
0 0 0 0 0 0 0 0 0 0 0 0 0 0 0 0 0 0 0 0 0 0 0 0 0 0 0 0 0 0 0 0 0 -19 -55 -10 -19 -38 -47 0 0 0 0 0 -15 -13 -10 -12 -17
0 0 0 -3 0 0 0 0 0 0 0 0 0 0 0 0 0 0 0 0 0 0 0 0 0 0 0 0 0 0 0 -61 -48 -42 -12 -91 -16 -72 -29 0 0 0 0 0 -13 -9 -12 -15 -19
-1 0 0 0 0 0 0 0 0 0 0 0 0 0 0 0 0 0 0 0 0 0 0 0 0 0 0 0 0 0 0 -66 -27 -11 -11 -85 -52 0 0 -84 0 0 0 -33 -22 -14 -14 -12 -30
0 0 0 0 0 0 0 0 0 0 0 0 0 0 0 0 0 0 0 0 0 0 0 0 0 0 0 0 0 0 -2 -13 -19 -11 -51 -32 -42 -39 -73 -2 -38 0 -26 -18 -19 -19 -18 -18 -21
0 0 0 0 0 0 0 0 0 0 0 0 0 0 0 0 0 0 0 0 0 0 0 0 0 0 0 0 0 -16 -10 -3 -28 -51 -52 -74 -58 0 -20 -46 -29 -40 -27 -22 -16 -17 -17 -16 -28
0 0 0 0 0 0 0 0 0 0 0 0 0 0 0 0 0 0 0 0 0 0 0 0 0 0 0 0 0 0 0 -6 -44 -56 -31 -48 -53 -11 -49 -65 -19 -13 -4 -3 -14 -17 -15 -18 -14
0 0 0 0 0 0 0 0 0 0 0 0 0 0 0 0 0 0 0 0 0 0 0 0 0 0 0 0 -30 -31 -1 -3 -24 -54 -8 0 0 0 0 0 -1 -6 -13 0 0 0 0 -35 0
0 0 0 0 0 0 0 0 0 0 0 0 0 0 0 0 0 0 0 0 0 0 0 0 0 0 0 0 0 -14 -17 0 0 0 0 0 0 0 0 0 0 0 0 0 0 0 0 0 0
0 0 0 0 0 0 0 0 0 0 0 0 0 0 0 0 0 0 0 0 0 0 0 0 0 0 0 0 0 0 0 0 0 0 0 0 0 0 0 0 0 0 0 0 0 0 0 0 0
0 0 0 0 0 0 0 0 0 0 0 0 0 0 0 0 0 0 0 0 0 0 0 0 0 0 0 0 0 0 0 0 0 0 0 0 0 0 0 0 0 0 0 0 0 0 0 0 0
0 0 0 0 0 0 0 0 0 0 0 0 0 0 0 0 0 0 0 0 0 0 0 0 0 0 0 0 0 0 0 0 0 0 0 0 0 0 0 0 0 0 0 0 0 0 0 0 0
0 0 0 0 0 0 0 0 0 0 0 0 0 0 0 0 0 0 0 0 0 0 0 0 0 0 0 0 0 0 0 0 0 0 0 0 0 0 0 0 0 0 0 0 0 0 0 0 0
0 0 0 0 0 0 0 0 0 0 0 0 0 0 0 0 0 0 0 0 0 0 0 0 0 0 0 0 0 0 0 0 0 0 0 0 0 0 0 0 0 0 0 0 0 0 0 0 0
0 0 0 0 0 0 0 0 0 0 0 0 0 0 0 0 0 0 0 0 0 0 0 0 0 0 0 0 0 0 0 0 0 0 0 0 0 0 0 0 0 0 0 0 0 0 0 0 0
Wind_Speed
29 27 20 15 20 23 29 27 20 26 26 24 25 22 20 19 23 22 13 21 22 19 10 7 7 7 7 7 6 4 5 4 4 3 3 3 3 3 2 1 1 2 3 4 4 5 5 5 4
27 23 16 18 27 35 36 24 26 23 20 29 22 20 21 21 17 15 19 23 23 18 10 8 8 8 8 8 8 7 6 5 4 4 4 3 3 3 4 2 1 1 2 3 4 5 5 4 2
27 16 20 22 28 35 38 26 24 25 28 26 22 21 18 20 17 16 19 20 20 21 11 9 7 8 9 10 10 9 9 6 6 5 5 4 4 4 3 2 1 3 2 2 4 4 3 3 4
24 21 22 29 32 30 28 30 34 37 28 21 21 17 16 18 17 17 18 19 20 21 17 10 9 10 9 12 12 11 10 9 8 7 6 6 5 5 4 3 2 2 1 2 3 4 3 4 3
25 24 32 37 38 36 36 35 36 33 27 24 21 20 15 17 14 17 20 20 20 20 19 18 22 17 16 13 14 14 12 12 10 9 8 7 7 6 5 4 4 3 2 3 3 4 3 2 3
29 26 37 44 44 39 35 29 32 31 28 26 23 22 18 14 16 19 21 20 21 20 20 20 22 26 29 20 18 17 15 14 13 11 10 9 8 8 7 6 4 4 3 3 3 2 2 1 1
28 32 41 42 44 43 38 33 31 30 29 25 22 24 20 20 25 27 24 24 23 23 22 21 23 24 27 32 28 20 18 16 15 14 13 11 10 9 9 8 7 5 4 5 4 2 2 2 2
25 28 37 36 40 46 32 32 24 27 29 24 22 25 25 29 34 33 30 27 27 25 25 24 24 25 26 28 31 28 21 19 17 16 16 13 12 11 10 9 9 8 7 6 5 4 4 4 5
22 28 33 32 31 33 32 30 24 26 26 27 28 28 31 36 29 31 34 35 34 33 29 28 26 26 26 28 29 30 27 23 21 19 18 16 15 12 10 10 10 10 9 9 10 9 7 6 7
18 25 26 21 30 36 36 36 35 33 36 34 33 31 34 37 36 34 35 39 40 39 36 30 29 28 28 28 29 30 29 28 25 23 20 19 18 15 12 10 11 10 9 9 10 9 9 8 10
20 23 23 30 35 36 39 40 37 40 40 36 41 39 38 39 40 42 42 40 43 41 39 36 34 31 31 30 29 31 32 31 28 25 24 22 21 19 17 13 12 12 11 11 10 10 11 10 10
27 22 25 26 34 39 42 41 42 43 45 42 44 44 42 42 42 40 39 41 42 44 44 41 36 35 33 31 30 30 31 30 31 28 25 24 23 21 20 16 14 14 13 12 12 13 14 13 12
26 26 26 28 32 34 38 41 43 47 46 44 43 42 42 42 43 42 43 42 42 43 42 39 37 36 35 34 33 33 34 33 30 33 28 26 24 22 21 19 17 16 15 14 14 14 16 16 15
23 27 28 30 32 30 29 30 31 36 36 37 39 39 38 37 39 39 39 38 38 37 39 37 34 35 35 36 35 34 33 37 34 31 33 28 26 25 23 21 19 18 17 16 15 15 17 18 18
25 29 27 24 25 25 26 28 27 33 32 31 31 30 30 29 31 34 34 37 35 34 35 37 36 36 35 37 38 35 33 33 38 41 40 31 28 27 24 23 20 19 18 18 16 16 17 17 17
26 26 32 27 32 28 33 33 31 32 31 30 29 26 26 28 32 35 36 37 34 30 33 36 37 36 35 37 37 37 33 32 29 35 39 35 30 27 26 24 22 19 18 19 19 17 17 18 19
29 38 39 34 34 38 37 40 36 38 31 28 29 29 30 31 31 33 34 33 33 29 31 33 34 35 34 36 36 36 35 34 32 29 29 18 26 23 23 27 21 19 19 18 18 18 17 18 19
42 43 39 38 37 38 37 36 29 27 24 26 28 31 32 33 34 36 36 34 33 30 26 31 34 35 34 35 36 35 35 33 31 28 21 18 22 20 21 21 18 18 16 18 19 18 18 17 18
38 42 46 43 39 34 32 31 33 23 25 27 29 32 34 35 36 35 36 34 32 28 29 32 35 36 35 34 35 34 32 32 28 24 16 12 12 13 16 16 19 13 16 14 17 18 18 18 16
42 45 41 33 36 39 25 27 19 21 23 25 28 30 32 33 34 35 37 35 34 32 31 30 33 33 34 31 32 31 28 28 24 18 11 17 18 18 7 12 14 15 16 17 15 19 20 20 18
44 36 34 30 34 26 15 14 23 24 24 26 27 28 29 30 32 33 32 33 34 33 31 30 33 32 33 31 31 30 27 26 22 18 17 9 9 10 9 10 11 4 9 12 14 18 18 21 23
41 29 21 15 25 25 20 15 25 24 23 25 27 28 28 29 29 29 28 29 31 32 30 31 31 29 29 31 30 29 28 27 25 19 15 13 8 12 13 12 3 9 8 9 7 15 16 18 17
33 19 15 14 21 23 22 19 22 23 23 27 28 27 27 26 26 26 25 24 26 28 29 25 24 24 26 27 26 26 25 25 20 16 8 8 8 11 9 3 7 9 8 10 8 13 16 18 17
32 25 25 19 19 29 24 20 22 23 23 24 25 25 25 25 25 24 23 21 18 18 19 21 21 20 20 19 17 18 18 17 15 14 14 10 9 11 10 7 7 8 11 13 11 11 11 13 13
37 34 31 28 29 26 24 23 20 22 22 21 23 23 24 24 23 22 22 21 21 19 18 18 17 17 16 14 12 12 11 12 11 11 11 10 11 11 10 9 7 9 10 11 12 11 11 11 11
31 33 30 29 24 18 13 19 21 27 24 22 22 23 22 22 22 21 22 21 21 20 19 18 16 15 12 11 8 5 4 5 5 4 4 4 6 8 8 8 8 10 11 10 12 12 12 12 13
28 30 23 22 20 17 20 17 20 25 25 22 23 22 23 23 22 22 21 21 20 18 18 17 14 12 9 6 3 1 2 2 2 2 4 5 8 7 11 11 12 12 13 14 14 13 12 15 14
32 24 25 22 21 18 13 12 3 24 25 25 24 20 18 19 19 20 20 18 15 15 15 10 8 7 6 3 3 7 7 7 7 8 9 11 12 13 14 17 17 16 16 16 16 17 15 15 16
35 30 20 17 18 19 17 13 7 15 27 26 24 21 20 19 16 14 14 13 10 8 7 8 5 6 6 6 11 14 12 11 10 12 12 14 17 19 20 20 21 20 16 16 20 20 19 18 18
32 31 26 22 20 17 17 16 5 3 3 5 6 9 10 9 8 8 9 7 7 7 7 5 6 10 7 6 15 18 18 17 20 19 19 21 22 22 23 22 22 24 23 21 22 20 20 19 21
Wind_Direction
329 321 333 330 310 305 297 298 301 307 303 296 294 299 300 304 287 284 318 312 311 304 305 280 273 267 249 232 215 195 160 160 168 204 191 170 157 136 128 111 63 347 7 22 43 59 66 73 62
334 333 336 319 300 293 296 295 294 298 300 305 299 296 293 289 306 299 295 311 313 312 310 280 268 265 248 230 221 223 205 182 190 192 208 186 170 164 143 149 114 336 35 55 67 74 79 76 27
331 336 318 309 298 290 297 301 294 300 304 302 293 290 288 288 297 299 308 313 321 319 310 291 268 259 250 235 225 219 223 216 205 199 203 194 186 170 172 175 143 97 65 80 93 90 79 75 77
336 328 315 296 289 299 295 302 301 298 299 304 305 287 292 298 288 297 312 312 313 320 314 294 280 266 256 239 232 217 216 221 222 212 208 207 202 194 180 190 200 170 98 117 115 107 96 89 88
330 317 301 297 293 295 296 297 298 294 292 289 301 289 286 295 302 306 309 310 309 311 314 296 279 276 268 242 235 228 223 224 223 224 218 209 211 211 212 215 231 200 150 159 138 122 109 102 89
316 313 298 294 294 296 296 299 300 297 293 287 283 286 283 290 300 303 306 306 309 307 307 299 293 280 268 259 240 235 230 230 228 225 218 215 216 218 216 226 225 194 198 175 163 158 135 132 112
308 304 297 297 296 294 293 299 293 293 291 287 286 277 274 281 296 297 302 302 302 302 304 302 292 289 277 266 255 242 236 231 229 229 223 214 214 215 224 224 230 213 219 226 193 204 226 241 267
320 311 303 300 297 295 301 297 296 292 286 291 290 276 273 277 292 291 291 295 295 298 297 297 294 285 284 277 263 252 240 235 230 232 227 220 216 216 220 226 227 225 225 219 235 245 250 252 263
329 313 308 306 306 305 306 301 299 301 292 289 284 282 283 283 297 295 286 283 283 284 292 291 289 286 282 279 271 262 250 242 236 233 231 229 233 224 216 221 218 224 231 233 251 257 257 256 264
328 316 313 310 312 306 303 297 295 291 286 285 286 288 288 285 287 290 290 282 278 278 278 284 284 282 279 277 273 266 259 249 243 241 237 238 239 234 232 221 221 223 216 228 242 247 252 256 265
338 316 312 306 306 307 300 295 294 288 282 285 284 286 289 287 286 284 284 284 278 277 275 274 277 276 275 273 272 267 263 255 246 241 239 240 239 238 240 235 231 235 227 233 235 240 250 254 262
332 327 323 318 310 303 298 297 291 286 283 288 286 285 286 284 283 284 285 283 282 276 271 270 271 269 270 271 269 270 266 266 249 242 238 238 237 236 241 238 235 234 235 235 242 246 251 254 260
332 331 330 324 317 309 303 296 292 287 289 288 287 285 284 283 283 283 283 284 280 276 271 268 268 265 266 265 268 268 264 262 268 244 236 236 235 234 237 238 239 239 241 240 244 247 253 256 261
344 336 329 323 317 313 308 306 302 299 296 292 288 285 285 283 282 283 281 281 280 280 272 267 263 264 265 264 264 266 268 264 263 265 240 233 235 233 235 238 238 239 242 244 247 249 254 257 263
343 333 333 334 331 321 315 309 307 304 303 303 301 291 290 289 288 282 283 280 280 279 274 264 263 263 264 264 261 263 264 271 268 253 249 236 233 233 232 237 240 239 242 244 251 254 257 258 262
346 345 338 335 330 325 320 309 308 309 306 305 309 306 302 297 290 284 283 280 281 280 275 265 263 262 263 263 261 259 263 267 277 258 260 242 237 232 226 234 237 238 240 245 252 255 257 258 262
349 336 332 330 326 320 314 306 306 303 303 304 304 305 301 296 292 290 289 289 277 280 275 265 264 260 262 263 262 260 261 262 268 271 260 252 239 226 233 237 235 234 241 245 252 258 259 261 265
339 334 331 325 324 319 313 306 316 320 314 307 305 303 301 295 289 286 284 284 286 278 274 266 264 262 264 263 262 261 259 261 265 268 260 238 240 232 229 241 242 241 241 248 252 257 264 266 268
340 335 329 325 324 323 318 313 309 315 311 308 306 304 300 294 290 287 280 278 279 281 275 269 266 262 261 262 262 260 257 259 264 265 264 245 242 249 238 245 245 244 247 247 249 260 263 267 271
347 339 336 339 331 320 318 318 331 329 319 313 310 308 304 298 295 289 279 271 269 272 271 274 269 263 260 263 264 261 258 257 258 258 276 254 259 253 253 248 260 250 260 265 257 258 266 270 271
355 355 354 351 342 358 4 348 331 319 318 315 316 313 308 304 298 295 286 272 265 269 273 275 269 263 261 262 263 258 257 256 253 256 257 283 270 256 187 264 260 201 277 275 268 268 266 269 272
7 14 17 40 26 16 18 10 340 314 305 315 316 316 310 307 304 303 303 284 268 267 271 272 275 267 266 265 259 251 251 250 251 253 265 264 271 262 266 282 266 285 297 295 290 280 276 275 277
19 22 47 70 64 53 27 355 320 320 313 314 315 315 311 309 308 309 311 302 275 269 273 281 277 277 275 266 254 249 252 253 248 243 262 276 299 292 267 314 303 305 320 314 337 316 297 290 290
28 51 57 71 73 24 339 358 325 329 315 311 312 313 312 310 311 315 319 319 320 309 294 286 284 285 284 270 257 255 253 248 234 237 246 272 296 304 315 317 341 334 327 323 334 336 332 317 308
38 50 50 49 42 40 10 353 351 326 321 313 308 307 309 311 313 318 323 325 324 322 314 299 294 287 287 276 262 255 256 246 234 239 250 272 292 314 324 317 336 347 348 352 4 358 357 341 328
41 48 52 50 54 59 51 324 4 359 328 317 314 310 307 314 319 319 323 325 325 326 325 315 302 292 286 282 260 246 242 245 236 251 267 313 311 312 350 351 1 5 10 17 21 9 3 7 357
41 45 48 56 58 68 63 79 61 320 319 313 316 316 322 322 322 322 323 329 327 324 325 323 307 290 282 268 234 177 137 113 115 68 38 37 22 18 28 22 21 33 35 30 36 31 13 11 5
47 47 53 58 57 71 87 104 236 313 314 316 317 310 307 310 314 319 323 318 311 318 325 307 305 285 263 234 133 109 89 92 88 75 59 52 47 42 44 48 50 47 44 40 38 40 29 21 10
45 47 56 63 71 74 82 98 84 301 319 318 313 307 310 311 302 297 302 302 293 276 240 206 230 261 213 145 102 89 85 82 82 74 63 59 59 57 57 54 56 55 43 40 44 44 40 33 26
49 46 54 65 68 87 97 97 102 11 302 269 258 280 289 292 276 282 289 272 261 230 222 252 216 188 183 138 104 92 91 85 80 79 72 68 66 58 57 57 55 56 51 46 45 41 36 31 28